Impacts METAR Board INFO
IDs:

KSEA - Seattle-Tacoma Intl, WA, US

Updated at: 0446 UTC 12 Dec 2017
Potential Impact None Slight Moderate High
Time11/16Z 11/17Z 11/18Z 11/19Z 11/20Z 11/21Z 11/22Z 11/23Z 12/00Z 12/01Z 12/02Z 12/03Z 12/04Z
VIS10 10 0.13 0.25 7 10 10 10 10 10 10 10 10
CIG-- -- 1 1 -- -- -- -- -- -- -- -- --
CoverFEWFEWOVXBKNFEWFEWFEWFEWFEWFEWFEWCLRCLR
FltCatVFRVFRLIFRLIFRVFRVFRVFRVFRVFRVFRVFRVFRVFR
WXBCFGBCFGFGFG------------------
WDir0180180250250140140190140200200160140
WSpd0 3 4 5 6 5 6 6 5 3 5 5 5
WGst-- -- -- -- -- -- -- -- -- -- -- -- --
Raw hourly METARs
KSEA 111553Z 00000KT 10SM BCFG FEW250 01/M01 A3033 RMK AO2 SLP279 FG BANK W T00061006
KSEA 111653Z 18003KT 10SM BCFG FEW001 00/M01 A3033 RMK AO2 SLP280 FG BANK S-W-NW T00001006
KSEA 111753Z 18004KT 1/8SM R16L/0400FT FG VV001 02/01 A3034 RMK AO2 SLP285 T00170011 10017 21017 53006
KSEA 111853Z 25005KT 1/4SM R16L/0500FT FG BKN001 02/02 A3034 RMK AO2 SLP284 T00220022
KSEA 111957Z 25006KT 7SM R16L/2400VP6000FT FEW001 04/03 A3035 RMK AO2 T00390028
KSEA 112053Z 14005KT 10SM FEW200 07/01 A3034 RMK AO2 SLP285 T00720011 57001
KSEA 112153Z 14006KT 10SM FEW200 09/00 A3034 RMK AO2 SLP282 T00890000
KSEA 112253Z 19006KT 10SM FEW250 08/03 A3037 RMK AO2 SLP295 T00780028
KSEA 112353Z 14005KT 10SM FEW250 06/01 A3036 RMK AO2 SLP290 T00610011 10094 20017 50004
KSEA 120053Z 20003KT 10SM FEW250 06/02 A3037 RMK AO2 SLP295 T00560017
KSEA 120153Z 20005KT 10SM FEW250 06/02 A3037 RMK AO2 SLP293 T00560017
KSEA 120253Z 16005KT 10SM CLR 06/00 A3039 RMK AO2 SLP299 T00610000 51010
KSEA 120353Z 14005KT 10SM CLR 05/M02 A3040 RMK AO2 SLP305 T00501017